Le nostre stazioni meteo in Italia

Pubblicità
Il mio iltempo24.it
Rodkallen, Svezia (2188): Temperatura & dewpoint: 18.06.2018 22:00:00 - 24.06.2018 22:00:00 (CEST)Rodkallen, Svezia (2188): velocità del vento & gusts: 18.06.2018 22:00:00 - 24.06.2018 22:00:00 (CEST)Rodkallen, Svezia (2188): direzione del vento: 18.06.2018 22:00:00 - 24.06.2018 22:00:00 (CEST)Rodkallen, Svezia (2188): visibility: 18.06.2018 22:00:00 - 24.06.2018 22:00:00 (CEST)Rodkallen, Svezia (2188): precipitazioni: 18.06.2018 22:00:00 - 24.06.2018 22:00:00 (CEST)
Data & Tempo tt [°C] td [°C] ff [km/h] ff [kn] fx [km/h] fx [kn] dd vv [km] rr [mm]
24.06.2018 22:00:00 - - - - - - - - -
24.06.2018 21:00:00 10,8 7,7 16 8 24 13 S 48 0,0
24.06.2018 20:00:00 11,0 7,5 17 9 26 14 SSO 38 0,0
24.06.2018 19:00:00 10,9 7,4 20 11 29 16 S 49 0,0
24.06.2018 18:00:00 11,3 7,6 22 12 29 16 S 42 0,0
24.06.2018 17:00:00 11,7 7,6 23 13 28 15 S 42 0,0
24.06.2018 16:00:00 11,9 7,4 23 12 28 15 S 40 0,0
24.06.2018 15:00:00 12,1 7,6 21 11 25 13 S 39 0,0
24.06.2018 14:00:00 12,3 7,4 17 9 26 14 S 49 0,0
24.06.2018 13:00:00 12,1 7,4 20 11 26 14 S 35 0,0
24.06.2018 12:00:00 11,9 7,6 22 12 25 13 S 40 0,0
24.06.2018 11:00:00 11,9 8,0 16 8 19 11 S 38 0,0
24.06.2018 10:00:00 11,8 7,5 10 5 14 7 SO 50 0,0
24.06.2018 09:00:00 11,9 8,2 9 5 18 10 O 47 0,0
24.06.2018 08:00:00 11,2 7,1 14 7 18 10 O 46 0,0
24.06.2018 07:00:00 10,4 7,3 11 6 19 11 O 49 0,0
24.06.2018 06:00:00 10,1 7,2 12 7 21 12 OSO 50 0,0
24.06.2018 05:00:00 9,8 7,1 18 10 21 12 O 50 0,0
24.06.2018 04:00:00 9,8 7,1 14 8 26 14 OSO 50 0,0
24.06.2018 03:00:00 9,9 7,1 16 9 26 14 O 50 0,0
24.06.2018 02:00:00 10,2 7,4 18 10 23 13 O 50 0,0
24.06.2018 01:00:00 10,2 7,8 11 6 28 15 O 50 0,0
24.06.2018 00:00:00 10,4 8,0 19 11 28 15 O 50 0,0
23.06.2018 23:00:00 10,7 7,9 19 10 27 14 OSO 50 0,0
23.06.2018 22:00:00 10,8 7,5 21 11 27 14 OSO 50 0,0
23.06.2018 21:00:00 10,5 8,1 17 9 27 14 SSO 50 0,0
23.06.2018 20:00:00 10,4 8,3 21 12 26 14 SSO 50 0,0
23.06.2018 19:00:00 10,3 8,7 19 11 24 13 S 48 0,0
23.06.2018 18:00:00 10,5 8,9 20 11 23 13 SSO 45 0,0
23.06.2018 17:00:00 10,4 8,7 19 11 26 14 SSO 40 0,0
23.06.2018 16:00:00 10,0 9,1 22 12 27 15 SSO 27 0,2
23.06.2018 15:00:00 10,8 8,9 21 11 27 15 OSO 17 0,0
23.06.2018 14:00:00 11,3 8,5 13 7 24 13 OSO 46 0,0
23.06.2018 13:00:00 11,5 8,4 16 9 31 17 O 42 0,0
23.06.2018 12:00:00 11,2 8,6 21 12 31 17 ONO 39 0,0
23.06.2018 11:00:00 11,0 8,7 24 13 32 17 O 45 0,0
23.06.2018 10:00:00 10,4 8,5 25 14 34 18 O 50 0,0
23.06.2018 09:00:00 10,2 8,5 27 15 35 19 ONO 50 0,0
23.06.2018 08:00:00 10,1 8,7 27 15 35 19 ONO 50 0,0
23.06.2018 07:00:00 9,7 8,6 28 15 35 19 ONO 50 0,0
23.06.2018 06:00:00 9,9 9,1 22 12 35 19 ONO 50 0,0
23.06.2018 05:00:00 9,9 9,6 20 11 27 14 NO 50 0,1
23.06.2018 04:00:00 9,8 9,5 17 9 24 13 ONO 12 2,3
23.06.2018 03:00:00 9,8 9,5 15 8 25 13 ONO 25 1,2
23.06.2018 02:00:00 10,1 9,8 17 9 25 13 NO 28 1,8
23.06.2018 01:00:00 10,2 9,7 14 8 27 15 NNO 50 0,2
23.06.2018 00:00:00 10,2 9,7 16 9 31 17 NNO 21 0,1
22.06.2018 23:00:00 10,1 9,6 19 10 33 18 NNO 48 0,0
22.06.2018 22:00:00 10,2 9,6 22 12 33 18 N 50 0,1
22.06.2018 21:00:00 10,2 9,7 22 12 44 24 N 40 0,5
22.06.2018 20:00:00 10,3 9,7 29 15 52 28 N 17 0,2
22.06.2018 19:00:00 10,2 9,6 32 18 61 33 N 22 0,5
22.06.2018 18:00:00 10,1 9,5 41 22 61 33 N 50 1,7
22.06.2018 17:00:00 9,4 8,9 40 21 66 35 N 4,6 2,1
22.06.2018 16:00:00 9,7 8,6 47 26 66 35 N 3,4 3,0
22.06.2018 15:00:00 9,9 8,7 45 24 65 35 N 4,7 5,2
22.06.2018 14:00:00 9,8 8,9 49 26 60 33 NNE 3,6 5,6
22.06.2018 13:00:00 10,1 9,2 36 19 49 26 NE 4,5 5,1
22.06.2018 12:00:00 11,8 8,6 32 17 46 25 N 14 1,4
22.06.2018 11:00:00 11,8 9,2 26 14 48 26 N 24 0,4
22.06.2018 10:00:00 11,5 8,9 32 17 48 26 N 36 0,1
22.06.2018 09:00:00 11,7 8,0 37 20 47 25 N 50 0,0
22.06.2018 08:00:00 11,3 8,0 31 17 42 23 N 50 0,0
22.06.2018 07:00:00 11,0 7,9 32 17 42 23 N 50 0,0
22.06.2018 06:00:00 10,9 8,3 28 15 36 19 N 50 0,0
22.06.2018 05:00:00 10,7 8,8 23 12 32 17 N 50 0,0
22.06.2018 04:00:00 10,8 8,6 20 11 29 15 N 50 0,0
22.06.2018 03:00:00 11,0 9,1 19 10 25 13 N 50 0,0
22.06.2018 02:00:00 10,8 9,1 14 7 22 12 N 50 0,0
22.06.2018 01:00:00 9,6 7,9 9 5 12 7 NNO 50 0,0
22.06.2018 00:00:00 9,7 8,0 7 4 12 7 E 43 0,0
21.06.2018 23:00:00 9,8 7,2 3 2 9 5 OSO 50 0,0
21.06.2018 22:00:00 10,0 7,4 4 2 16 8 SE 50 0,0
21.06.2018 21:00:00 10,5 7,6 6 3 19 10 SSO 49 0,0
21.06.2018 20:00:00 10,7 7,6 14 7 22 12 SSO 50 0,0
21.06.2018 19:00:00 11,2 7,5 16 8 29 15 S 49 0,0
21.06.2018 18:00:00 11,1 7,2 16 9 32 17 S 37 0,0
21.06.2018 17:00:00 11,4 7,1 26 14 37 20 S 36 0,0
21.06.2018 16:00:00 11,7 7,0 28 15 37 20 S 44 0,0
21.06.2018 15:00:00 12,0 6,9 29 16 34 19 S 44 0,0
21.06.2018 14:00:00 11,9 7,2 27 14 31 17 S 45 0,0
21.06.2018 13:00:00 12,1 7,2 22 12 28 15 S 40 0,0
21.06.2018 12:00:00 12,1 7,2 24 13 27 15 S 44 0,0
21.06.2018 11:00:00 11,2 7,3 19 11 26 14 SSO 37 0,0
21.06.2018 10:00:00 10,8 7,3 22 12 25 14 SSO 37 0,0
21.06.2018 09:00:00 10,5 7,6 19 11 22 12 SSO 33 0,0
21.06.2018 08:00:00 10,5 7,2 18 10 25 14 SO 40 0,0
21.06.2018 07:00:00 10,3 7,0 18 10 25 14 SO 41 0,0
21.06.2018 06:00:00 10,2 6,9 20 11 25 13 OSO 44 0,0
21.06.2018 05:00:00 9,8 7,1 18 10 28 15 OSO 50 0,0
21.06.2018 04:00:00 10,0 6,5 21 11 28 15 OSO 50 0,0
21.06.2018 03:00:00 9,8 6,9 19 10 27 15 OSO 50 0,0
21.06.2018 02:00:00 10,2 7,1 22 12 33 18 OSO 50 0,0
21.06.2018 01:00:00 10,6 6,7 24 13 33 18 OSO 50 0,0
21.06.2018 00:00:00 11,1 6,4 29 16 32 17 OSO 50 0,0
20.06.2018 23:00:00 11,4 6,5 25 14 31 17 OSO 50 0,0
20.06.2018 22:00:00 11,1 6,4 23 12 36 19 SO 50 0,0
20.06.2018 21:00:00 12,9 5,3 24 13 36 19 OSO 49 0,0
20.06.2018 20:00:00 11,9 6,4 27 15 39 21 SO 50 0,0
20.06.2018 19:00:00 12,3 6,3 29 16 41 22 SSO 42 0,0
20.06.2018 18:00:00 12,1 6,8 29 16 41 22 SO 50 0,0
20.06.2018 17:00:00 13,7 6,1 31 17 39 21 OSO 44 0,0
20.06.2018 16:00:00 13,6 6,5 24 13 38 20 OSO 45 0,0
20.06.2018 15:00:00 12,7 6,7 19 10 31 17 SO 38 0,0
20.06.2018 14:00:00 13,4 6,5 23 13 34 18 SO 35 0,0
20.06.2018 13:00:00 13,1 6,2 27 14 34 18 OSO 33 0,0
20.06.2018 12:00:00 12,7 6,3 27 14 33 18 OSO 50 0,0
20.06.2018 11:00:00 12,6 6,4 23 12 35 19 OSO 41 0,0
20.06.2018 10:00:00 11,6 6,3 29 16 35 19 OSO 41 0,0
20.06.2018 09:00:00 11,0 6,5 29 15 35 19 OSO 49 0,0
20.06.2018 08:00:00 10,7 6,6 26 14 38 21 OSO 45 0,0
20.06.2018 07:00:00 10,5 6,3 31 17 45 24 OSO 42 0,0
20.06.2018 06:00:00 10,0 6,3 28 15 45 24 OSO 39 0,0
20.06.2018 05:00:00 9,8 6,1 36 20 45 24 O 44 0,0
20.06.2018 04:00:00 9,4 6,7 33 18 38 21 OSO 50 0,0
20.06.2018 03:00:00 9,4 6,8 33 18 38 20 OSO 50 0,0
20.06.2018 02:00:00 9,2 7,0 27 14 38 21 OSO 50 0,0
20.06.2018 01:00:00 9,4 7,7 26 14 41 22 OSO 50 0,0
20.06.2018 00:00:00 9,9 7,3 34 19 41 22 OSO 50 0,0
19.06.2018 23:00:00 9,5 7,8 29 16 44 24 OSO 50 0,0
19.06.2018 22:00:00 9,4 7,5 27 15 44 24 OSO 50 0,0
19.06.2018 21:00:00 9,5 7,9 37 20 44 24 O 50 0,0
19.06.2018 20:00:00 9,2 9,1 23 13 31 17 O 10 0,1
19.06.2018 19:00:00 8,9 8,6 14 8 27 15 S 6 0,1
19.06.2018 18:00:00 9,2 8,7 16 9 31 17 SE 17 0,2
19.06.2018 17:00:00 9,3 9,0 23 12 31 17 SE 13 1,9
19.06.2018 16:00:00 9,3 9,0 21 11 37 20 SSE 12 0,1
19.06.2018 15:00:00 9,5 9,2 25 14 39 21 SSE 9 0,4
19.06.2018 14:00:00 9,8 9,5 28 15 40 22 SSE 7 0,7
19.06.2018 13:00:00 9,7 9,4 31 17 40 22 SE 6 1,8
19.06.2018 12:00:00 9,8 9,5 32 18 42 23 SE 9 0,5
19.06.2018 11:00:00 9,5 9,0 28 15 42 23 SE 4,7 2,7
19.06.2018 10:00:00 9,8 8,6 28 15 35 19 SE 26 0,0
19.06.2018 09:00:00 9,8 8,7 29 16 39 21 SE 33 0,0
19.06.2018 08:00:00 9,6 8,5 28 15 39 21 SSE 28 0,0
19.06.2018 07:00:00 9,5 8,4 28 15 37 20 SSE 26 0,0
19.06.2018 06:00:00 9,6 8,5 29 16 37 20 SSE 22 0,0
19.06.2018 05:00:00 9,7 8,8 28 15 34 19 SSE 25 0,0
19.06.2018 04:00:00 9,2 8,6 26 14 32 18 SSE 17 0,0
19.06.2018 03:00:00 9,1 8,7 28 15 34 18 S 14 0,0
19.06.2018 02:00:00 9,0 8,6 29 16 34 18 S 12 0,0
19.06.2018 01:00:00 8,9 8,4 24 13 32 17 S 18 0,0
19.06.2018 00:00:00 9,5 8,6 22 12 33 18 S 25 0,0
18.06.2018 23:00:00 9,7 8,8 28 15 34 18 S 26 0,0
18.06.2018 22:00:00 9,5 8,7 29 16 36 19 S 21 0,0

tt = Temperatura
td = dewpoint
ff = velocità del vento
fx = gusts
dd = direzione del vento
vv = visibility
rr = precipitazioni

Stazioni seguenti

WeatherPro
AMSI
MeteoEarth